GW5308 Weather Reports


Display with metric or nautical units.
time (UTC)temp
F
wind
direction
speed
MPH
gust
MPH
rain 1hr
in
rain 24hr
in
rain mn
in
humidity
%
barometer
mb
20260508003514 77 0 0.0 0.0 0.00 0.00 0.00 59 1011.6
20260508003034 77 0 0.0 0.0 0.00 0.00 0.00 59 1011.5
20260508002516 77 0 0.0 0.0 0.00 0.00 0.00 59 1011.5
20260508002016 78 0 0.0 0.0 0.00 0.00 0.00 57 1011.5
20260508001534 79 0 0.0 0.0 0.00 0.00 0.00 56 1011.4
20260508001017 80 0 0.0 0.0 0.00 0.00 0.00 55 1011.4
20260508000520 80 0 0.0 0.0 0.00 0.00 0.00 53 1011.5
20260508000039 81 0 0.0 0.0 0.00 0.00 0.00 53 1011.5
20260507235516 82 0 0.0 0.0 0.00 0.00 0.00 52 1011.5
20260507235016 83 0 0.0 1.0 0.00 0.00 0.00 50 1011.5
20260507234542 84 0 0.0 1.0 0.00 0.00 0.00 49 1011.5
20260507234016 84 0 0.0 1.0 0.00 0.00 0.00 48 1011.5
20260507233514 85 0 0.0 1.0 0.00 0.00 0.00 47 1011.4
20260507233035 86 0 0.0 1.0 0.00 0.00 0.00 46 1011.3
20260507232519 87 0 0.0 1.0 0.00 0.00 0.00 44 1011.3
20260507232014 87 213 0.0 3.0 0.00 0.00 0.00 43 1011.3
20260507231537 88 0 0.0 3.0 0.00 0.00 0.00 41 1011.2
20260507231016 88 230 0.0 3.0 0.00 0.00 0.00 40 1011.2
20260507230516 89 0 0.0 2.0 0.00 0.00 0.00 40 1011.2
20260507230033 89 160 0.0 2.0 0.00 0.00 0.00 39 1011.2
20260507225516 89 0 0.0 2.0 0.00 0.00 0.00 38 1011.2
20260507225014 90 0 0.0 2.0 0.00 0.00 0.00 39 1011.2
20260507224533 90 0 0.0 2.0 0.00 0.00 0.00 39 1011.3
20260507224018 91 201 0.0 2.0 0.00 0.00 0.00 37 1011.3
20260507223520 91 0 0.0 2.0 0.00 0.00 0.00 36 1011.3
20260507223037 92 0 0.0 3.0 0.00 0.00 0.00 36 1011.3
20260507222523 92 241 1.0 3.0 0.00 0.00 0.00 33 1011.3
20260507222016 93 218 0.0 4.0 0.00 0.00 0.00 34 1011.3
20260507221532 93 0 0.0 4.0 0.00 0.00 0.00 35 1011.3
20260507221016 94 226 1.0 4.0 0.00 0.00 0.00 34 1011.2
20260507220520 94 181 0.0 2.0 0.00 0.00 0.00 34 1011.3
20260507220033 94 182 1.0 2.0 0.00 0.00 0.00 34 1011.2
20260507215518 94 0 0.0 5.0 0.00 0.00 0.00 35 1011.2
20260507215016 95 0 1.0 5.0 0.00 0.00 0.00 34 1011.3
20260507214534 95 0 0.0 5.0 0.00 0.00 0.00 37 1011.3
20260507214016 95 281 1.0 5.0 0.00 0.00 0.00 37 1011.2
20260507213516 96 0 0.0 6.0 0.00 0.00 0.00 38 1011.2
20260507213038 96 140 1.0 6.0 0.00 0.00 0.00 37 1011.2
20260507212516 96 178 1.0 6.0 0.00 0.00 0.00 37 1011.3
20260507212022 96 219 1.0 6.0 0.00 0.00 0.00 37 1011.3
20260507211543 96 214 1.0 4.0 0.00 0.00 0.00 36 1011.2
20260507211014 96 33 1.0 7.0 0.00 0.00 0.00 36 1011.2
20260507210514 97 205 1.0 7.0 0.00 0.00 0.00 35 1011.3
20260507210034 97 70 1.0 5.0 0.00 0.00 0.00 34 1011.3
20260507205516 97 240 1.0 7.0 0.00 0.00 0.00 37 1011.3
20260507205014 98 113 1.0 7.0 0.00 0.00 0.00 37 1011.2
20260507204530 99 196 0.0 4.0 0.00 0.00 0.00 38 1011.3
20260507204012 99 0 0.0 3.0 0.00 0.00 0.00 39 1011.2
20260507203514 98 0 0.0 5.0 0.00 0.00 0.00 39 1011.3
20260507203035 98 257 0.0 5.0 0.00 0.00 0.00 40 1011.2
20260507202511 98 245 0.0 5.0 0.00 0.00 0.00 40 1011.3
20260507202020 98 244 1.0 4.0 0.00 0.00 0.00 40 1011.3
20260507201533 99 85 0.0 3.0 0.00 0.00 0.00 39 1011.4
20260507201013 98 213 0.0 3.0 0.00 0.00 0.00 41 1011.4
20260507200515 98 237 1.0 4.0 0.00 0.00 0.00 39 1011.6
20260507200032 98 250 0.0 4.0 0.00 0.00 0.00 41 1011.6
20260507195514 97 211 1.0 5.0 0.00 0.00 0.00 41 1011.7
20260507195014 98 234 1.0 5.0 0.00 0.00 0.00 41 1011.8
20260507194537 98 191 0.0 5.0 0.00 0.00 0.00 40 1011.8
20260507194013 98 131 0.0 5.0 0.00 0.00 0.00 42 1011.9
20260507193514 97 201 1.0 5.0 0.00 0.00 0.00 42 1011.8
20260507193032 97 257 1.0 4.0 0.00 0.00 0.00 42 1011.9
20260507192511 98 0 0.0 3.0 0.00 0.00 0.00 42 1012.1
20260507192011 97 0 0.0 3.0 0.00 0.00 0.00 42 1012.2
20260507191531 97 0 0.0 6.0 0.00 0.00 0.00 42 1012.1
20260507191015 97 68 0.0 6.0 0.00 0.00 0.00 43 1012.2
20260507190515 97 248 1.0 6.0 0.00 0.00 0.00 42 1012.2
20260507190036 97 200 1.0 5.0 0.00 0.00 0.00 42 1012.2
20260507185513 97 240 1.0 4.0 0.00 0.00 0.00 42 1012.3
20260507185012 97 135 1.0 4.0 0.00 0.00 0.00 43 1012.5
20260507184534 96 304 1.0 3.0 0.00 0.00 0.00 44 1012.7
20260507184014 97 183 0.0 3.0 0.00 0.00 0.00 43 1012.7
20260507183514 96 94 1.0 3.0 0.00 0.00 0.00 44 1012.9
20260507183031 96 30 1.0 4.0 0.00 0.00 0.00 42 1013.0
20260507182514 96 123 1.0 4.0 0.00 0.00 0.00 43 1013.0
20260507182015 96 201 1.0 4.0 0.00 0.00 0.00 43 1013.2
20260507181531 97 83 1.0 4.0 0.00 0.00 0.00 42 1013.3
20260507181017 96 218 1.0 4.0 0.00 0.00 0.00 42 1013.5
20260507180514 97 297 1.0 5.0 0.00 0.00 0.00 42 1013.7
20260507180036 97 233 0.0 5.0 0.00 0.00 0.00 45 1013.6
20260507175522 96 115 1.0 4.0 0.00 0.00 0.00 44 1013.7
20260507175015 96 233 1.0 4.0 0.00 0.00 0.00 45 1013.7
20260507174546 96 217 1.0 4.0 0.00 0.00 0.00 45 1013.6
20260507174018 95 177 0.0 4.0 0.00 0.00 0.00 46 1013.7
20260507173514 95 210 1.0 4.0 0.00 0.00 0.00 47 1013.7
20260507173032 96 207 1.0 4.0 0.00 0.00 0.00 48 1013.8
20260507172517 95 139 1.0 4.0 0.00 0.00 0.00 49 1013.8
20260507172021 95 116 0.0 4.0 0.00 0.00 0.00 49 1013.9
20260507171545 95 354 1.0 4.0 0.00 0.00 0.00 51 1013.9
20260507171016 95 247 1.0 4.0 0.00 0.00 0.00 51 1013.8
20260507170515 95 212 0.0 4.0 0.00 0.00 0.00 50 1013.8
20260507170032 95 143 1.0 3.0 0.00 0.00 0.00 51 1013.8
20260507165521 94 214 1.0 3.0 0.00 0.00 0.00 52 1013.7
20260507165017 94 251 0.0 3.0 0.00 0.00 0.00 54 1013.8
20260507164537 94 212 1.0 3.0 0.00 0.00 0.00 52 1013.8
20260507164015 93 191 1.0 5.0 0.00 0.00 0.00 53 1013.9
20260507163516 93 221 0.0 5.0 0.00 0.00 0.00 53 1013.9
20260507163036 93 226 1.0 3.0 0.00 0.00 0.00 55 1014.0
20260507162516 93 204 1.0 4.0 0.00 0.00 0.00 54 1014.1
20260507162016 92 221 1.0 5.0 0.00 0.00 0.00 56 1014.1
20260507161538 92 204 1.0 5.0 0.00 0.00 0.00 56 1014.1
20260507161018 92 0 1.0 4.0 0.00 0.00 0.00 57 1014.2
20260507160516 92 120 1.0 3.0 0.00 0.00 0.00 58 1014.3
20260507160044 92 120 0.0 3.0 0.00 0.00 0.00 60 1014.3
20260507155516 92 0 0.0 3.0 0.00 0.00 0.00 59 1014.2
20260507155017 91 249 1.0 3.0 0.00 0.00 0.00 59 1014.3
20260507154536 91 197 0.0 2.0 0.00 0.00 0.00 60 1014.4
20260507154016 91 228 1.0 3.0 0.00 0.00 0.00 59 1014.6
20260507153516 92 92 0.0 3.0 0.00 0.00 0.00 60 1014.5
20260507153031 91 275 0.0 3.0 0.00 0.00 0.00 61 1014.5
20260507152517 91 203 0.0 3.0 0.00 0.00 0.00 62 1014.5
20260507152015 90 274 0.0 5.0 0.00 0.00 0.00 65 1014.4
20260507151536 89 217 1.0 5.0 0.00 0.00 0.00 64 1014.3
20260507151014 90 223 0.0 2.0 0.00 0.00 0.00 65 1014.5
20260507150514 89 229 0.0 2.0 0.00 0.00 0.00 64 1014.6
20260507150037 89 0 0.0 2.0 0.00 0.00 0.00 66 1014.5
20260507145514 88 0 1.0 5.0 0.00 0.00 0.00 67 1014.6
20260507145020 88 163 1.0 5.0 0.00 0.00 0.00 66 1014.6
20260507144535 88 224 1.0 3.0 0.00 0.00 0.00 66 1014.8
20260507144014 88 219 0.0 2.0 0.00 0.00 0.00 67 1014.7
20260507143513 87 207 1.0 2.0 0.00 0.00 0.00 66 1014.8
20260507143032 87 225 0.0 2.0 0.00 0.00 0.00 68 1014.9
20260507142517 86 207 0.0 2.0 0.00 0.00 0.00 69 1014.9
20260507142019 86 219 0.0 3.0 0.00 0.00 0.00 70 1014.9
20260507141533 85 210 0.0 3.0 0.00 0.00 0.00 70 1014.9
20260507141018 85 248 1.0 3.0 0.00 0.00 0.00 70 1014.8
20260507140516 85 240 0.0 2.0 0.00 0.00 0.00 73 1014.8
20260507140044 85 0 0.0 2.0 0.00 0.00 0.00 72 1014.9
20260507135516 84 273 0.0 2.0 0.00 0.00 0.00 73 1014.9
20260507135021 83 0 0.0 2.0 0.00 0.00 0.00 74 1014.9
20260507134531 83 0 0.0 2.0 0.00 0.00 0.00 75 1014.9
20260507134016 82 0 1.0 3.0 0.00 0.00 0.00 75 1014.9
20260507133516 82 221 1.0 3.0 0.00 0.00 0.00 76 1014.7
20260507133036 82 230 0.0 4.0 0.00 0.00 0.00 76 1014.8
20260507132514 81 0 0.0 4.0 0.00 0.00 0.00 77 1014.9
20260507132014 81 230 0.0 3.0 0.00 0.00 0.00 78 1014.8
20260507131604 80 0 0.0 0.0 0.00 0.00 0.00 77 1014.7
20260507131014 80 0 0.0 0.0 0.00 0.00 0.00 79 1014.7
20260507130516 79 0 0.0 0.0 0.00 0.00 0.00 80 1014.7
20260507130031 78 0 0.0 0.0 0.00 0.00 0.00 83 1014.6
20260507125514 77 0 0.0 0.0 0.00 0.00 0.00 84 1014.6
20260507125014 76 0 0.0 0.0 0.00 0.00 0.00 85 1014.7
20260507124533 75 0 0.0 0.0 0.00 0.00 0.00 87 1014.8
20260507124017 74 0 0.0 0.0 0.00 0.00 0.00 90 1014.9
20260507123517 72 0 0.0 0.0 0.00 0.00 0.00 93 1014.8
20260507123041 71 0 0.0 0.0 0.00 0.00 0.00 95 1015.0
20260507122518 70 0 0.0 0.0 0.00 0.00 0.00 98 1014.9
20260507122013 68 0 0.0 0.0 0.00 0.00 0.00 98 1015.0
20260507121533 68 0 0.0 0.0 0.00 0.00 0.00 99 1015.0
20260507121014 68 0 0.0 0.0 0.00 0.00 0.00 99 1015.1
20260507120516 67 0 0.0 0.0 0.00 0.00 0.00 99 1015.0
20260507120038 67 0 0.0 0.0 0.00 0.00 0.00 99 1015.0
20260507115514 66 0 0.0 0.0 0.00 0.00 0.00 99 1015.0
20260507115014 66 0 0.0 0.0 0.00 0.00 0.00 99 1014.9
20260507114533 66 0 0.0 0.0 0.00 0.00 0.00 100 1015.0
20260507114018 65 0 0.0 0.0 0.00 0.00 0.00 100 1014.9
20260507113513 65 0 0.0 0.0 0.00 0.00 0.00 100 1014.9
20260507113100 65 0 0.0 0.0 0.00 0.00 0.00 100 1014.9
20260507112518 64 0 0.0 0.0 0.00 0.00 0.00 100 1014.8
20260507112014 64 0 0.0 0.0 0.00 0.00 0.00 99 1014.7
20260507111533 64 0 0.0 0.0 0.00 0.00 0.00 99 1014.7
20260507111014 63 0 0.0 0.0 0.00 0.00 0.00 99 1014.6
20260507110513 63 0 0.0 0.0 0.00 0.00 0.00 99 1014.6
20260507110037 63 0 0.0 0.0 0.00 0.00 0.00 99 1014.4
20260507105515 62 0 0.0 0.0 0.00 0.00 0.00 99 1014.4
20260507105012 62 0 0.0 0.0 0.00 0.00 0.00 99 1014.2
20260507104531 62 0 0.0 0.0 0.00 0.00 0.00 99 1014.2
20260507104014 62 0 0.0 0.0 0.00 0.00 0.00 99 1014.2
20260507103513 62 0 0.0 0.0 0.00 0.00 0.00 98 1014.2
20260507103033 62 0 0.0 0.0 0.00 0.00 0.00 98 1014.3
20260507102513 62 0 0.0 0.0 0.00 0.00 0.00 98 1014.2
20260507102017 62 0 0.0 0.0 0.00 0.00 0.00 98 1014.3
20260507101530 62 0 0.0 0.0 0.00 0.00 0.00 98 1014.1
20260507101014 62 0 0.0 0.0 0.00 0.00 0.00 98 1013.9
20260507100513 61 0 0.0 0.0 0.00 0.00 0.00 98 1014.0
20260507100041 61 0 0.0 0.0 0.00 0.00 0.00 97 1014.2
20260507095514 61 0 0.0 0.0 0.00 0.00 0.00 97 1014.1
20260507095014 61 0 0.0 0.0 0.00 0.00 0.00 98 1014.0
20260507094533 62 0 0.0 0.0 0.00 0.00 0.00 97 1014.1
20260507094010 61 0 0.0 0.0 0.00 0.00 0.00 98 1014.0
20260507093515 61 0 0.0 0.0 0.00 0.00 0.00 97 1014.1
20260507093035 61 0 0.0 0.0 0.00 0.00 0.00 97 1014.1
20260507092514 61 0 0.0 0.0 0.00 0.00 0.00 97 1014.0
20260507092013 61 0 0.0 0.0 0.00 0.00 0.00 97 1013.9
20260507091540 62 0 0.0 0.0 0.00 0.00 0.00 97 1013.9
20260507091014 62 0 0.0 0.0 0.00 0.00 0.00 97 1013.9
20260507090515 62 0 0.0 0.0 0.00 0.00 0.00 97 1013.7
20260507090032 62 0 0.0 0.0 0.00 0.00 0.00 96 1013.6
20260507085514 62 0 0.0 0.0 0.00 0.00 0.00 96 1013.6
20260507085012 62 0 0.0 0.0 0.00 0.00 0.00 96 1013.6
20260507084546 62 0 0.0 0.0 0.00 0.00 0.00 96 1013.6
20260507084015 62 0 0.0 0.0 0.00 0.00 0.00 96 1013.5
20260507083513 62 0 0.0 0.0 0.00 0.00 0.00 96 1013.6
20260507083032 62 0 0.0 0.0 0.00 0.00 0.00 96 1013.7
20260507082514 62 0 0.0 0.0 0.00 0.00 0.00 95 1013.7
20260507082016 63 0 0.0 0.0 0.00 0.00 0.00 95 1013.8
20260507081533 63 0 0.0 0.0 0.00 0.00 0.00 95 1013.8
20260507081017 63 0 0.0 0.0 0.00 0.00 0.00 95 1013.8
20260507080511 63 0 0.0 0.0 0.00 0.00 0.00 95 1013.7
20260507080032 63 0 0.0 0.0 0.00 0.00 0.00 95 1013.6
20260507075513 63 0 0.0 0.0 0.00 0.00 0.00 94 1013.5
20260507075019 63 0 0.0 0.0 0.00 0.00 0.00 94 1013.5
20260507074534 63 0 0.0 0.0 0.00 0.00 0.00 93 1013.5
20260507074014 64 0 0.0 0.0 0.00 0.00 0.00 94 1013.6
20260507073516 64 0 0.0 0.0 0.00 0.00 0.00 94 1013.6
20260507073033 64 0 0.0 0.0 0.00 0.00 0.00 94 1013.6
20260507072514 64 0 0.0 0.0 0.00 0.00 0.00 93 1013.7
20260507072015 64 0 0.0 0.0 0.00 0.00 0.00 92 1013.8
20260507071535 64 0 0.0 0.0 0.00 0.00 0.00 91 1013.9
20260507071014 64 0 0.0 0.0 0.00 0.00 0.00 91 1013.9
20260507070511 64 0 0.0 0.0 0.00 0.00 0.00 90 1014.0
20260507070032 64 0 0.0 0.0 0.00 0.00 0.00 90 1014.1
20260507065513 65 0 0.0 0.0 0.00 0.00 0.00 89 1014.1
20260507065016 65 0 0.0 0.0 0.00 0.00 0.00 90 1014.2
20260507064540 65 0 0.0 0.0 0.00 0.00 0.00 90 1014.2
20260507064012 66 0 0.0 0.0 0.00 0.00 0.00 88 1014.3
20260507063513 66 0 0.0 0.0 0.00 0.00 0.00 87 1014.5
20260507063030 66 0 0.0 0.0 0.00 0.00 0.00 87 1014.5
20260507062513 66 0 0.0 0.0 0.00 0.00 0.00 87 1014.5
20260507062015 67 0 0.0 0.0 0.00 0.00 0.00 86 1014.7
20260507061536 67 0 0.0 0.0 0.00 0.00 0.00 86 1014.8
20260507061013 67 0 0.0 0.0 0.00 0.00 0.00 85 1014.9
20260507060513 67 0 0.0 0.0 0.00 0.00 0.00 84 1015.0
20260507060038 68 0 0.0 0.0 0.00 0.00 0.00 84 1015.0
20260507055516 68 0 0.0 0.0 0.00 0.00 0.00 84 1015.0
20260507055015 68 0 0.0 0.0 0.00 0.00 0.00 84 1014.9
20260507054540 69 0 0.0 0.0 0.00 0.00 0.00 83 1014.9
20260507054015 69 0 0.0 0.0 0.00 0.00 0.00 83 1015.1
20260507053517 69 0 0.0 0.0 0.00 0.00 0.00 82 1015.0
20260507053037 69 0 0.0 0.0 0.00 0.00 0.00 82 1015.0
20260507052519 70 0 0.0 0.0 0.00 0.00 0.00 81 1015.1
20260507052014 70 0 0.0 0.0 0.00 0.00 0.00 80 1015.2
20260507051535 70 0 0.0 0.0 0.00 0.00 0.00 80 1015.2
20260507051018 70 0 0.0 0.0 0.00 0.00 0.00 80 1015.1
20260507050513 70 0 0.0 0.0 0.00 0.00 0.00 80 1015.1
20260507050058 71 0 0.0 0.0 0.00 0.00 0.00 80 1015.0
20260507045516 70 0 0.0 0.0 0.00 0.00 0.00 80 1015.1
20260507045015 70 0 0.0 0.0 0.00 0.00 0.00 81 1015.0
20260507044545 70 0 0.0 0.0 0.00 0.00 0.00 81 1014.9
20260507044015 70 0 0.0 0.0 0.00 0.00 0.00 82 1015.0
20260507043515 70 0 0.0 0.0 0.00 0.00 0.00 82 1015.0
20260507043036 70 0 0.0 0.0 0.00 0.00 0.00 83 1015.0
20260507042516 69 0 0.0 0.0 0.00 0.00 0.00 83 1015.2
20260507042017 69 0 0.0 0.0 0.00 0.00 0.00 84 1015.4
20260507041534 69 0 0.0 0.0 0.00 0.00 0.00 84 1015.3
20260507041014 69 0 0.0 0.0 0.00 0.00 0.00 84 1015.5
20260507040516 69 0 0.0 0.0 0.00 0.00 0.00 85 1015.4
20260507040033 69 0 0.0 0.0 0.00 0.00 0.00 85 1015.3
20260507035513 69 0 0.0 0.0 0.00 0.00 0.00 85 1015.2
20260507035014 69 0 0.0 0.0 0.00 0.00 0.00 85 1015.2
20260507034539 69 0 0.0 0.0 0.00 0.00 0.00 85 1015.3
20260507034018 69 0 0.0 0.0 0.00 0.00 0.00 85 1015.1
20260507033515 69 0 0.0 0.0 0.00 0.00 0.00 86 1015.1
20260507033041 69 0 0.0 0.0 0.00 0.00 0.00 85 1015.1
20260507032516 69 0 0.0 0.0 0.00 0.00 0.00 84 1015.3
20260507032016 69 0 0.0 0.0 0.00 0.00 0.00 83 1015.2
20260507031534 69 0 0.0 0.0 0.00 0.00 0.00 83 1015.3
20260507031016 69 0 0.0 0.0 0.00 0.00 0.00 82 1015.2
20260507030515 70 0 0.0 0.0 0.00 0.00 0.00 82 1015.2
20260507030037 70 0 0.0 0.0 0.00 0.00 0.00 81 1015.4
20260507025515 70 0 0.0 0.0 0.00 0.00 0.00 81 1015.3
20260507025018 71 0 0.0 0.0 0.00 0.00 0.00 79 1015.3
20260507024541 71 0 0.0 0.0 0.00 0.00 0.00 78 1015.4
20260507024013 72 0 0.0 0.0 0.00 0.00 0.00 78 1015.4
20260507023514 72 0 0.0 0.0 0.00 0.00 0.00 76 1015.3
20260507023032 72 0 0.0 0.0 0.00 0.00 0.00 75 1015.3
20260507022512 73 0 0.0 0.0 0.00 0.00 0.00 74 1015.2
20260507022015 74 0 0.0 0.0 0.00 0.00 0.00 73 1015.1
20260507021547 74 0 0.0 1.0 0.00 0.00 0.00 72 1015.2
20260507021011 75 0 0.0 1.0 0.00 0.00 0.00 71 1015.1
20260507020514 75 0 0.0 1.0 0.00 0.00 0.00 70 1015.1
20260507020034 76 254 0.0 1.0 0.00 0.00 0.00 70 1015.2
20260507015512 76 0 0.0 1.0 0.00 0.00 0.00 69 1015.1
20260507015014 76 0 0.0 1.0 0.00 0.00 0.00 68 1014.9
20260507014532 77 0 0.0 1.0 0.00 0.00 0.00 68 1014.9
20260507014017 77 0 0.0 2.0 0.00 0.00 0.00 67 1014.7
20260507013511 77 0 0.0 2.0 0.00 0.00 0.00 66 1014.6
20260507013035 77 252 0.0 3.0 0.00 0.00 0.00 66 1014.5
20260507012514 78 0 0.0 3.0 0.00 0.00 0.00 66 1014.5
20260507012013 78 0 0.0 3.0 0.00 0.00 0.00 66 1014.4
20260507011536 78 232 0.0 2.0 0.00 0.00 0.00 66 1014.3
20260507011014 78 258 0.0 5.0 0.00 0.00 0.00 66 1014.2
20260507010515 78 259 0.0 5.0 0.00 0.00 0.00 66 1014.2
20260507010042 78 76 0.0 5.0 0.00 0.00 0.00 66 1014.2
20260507005512 79 0 0.0 4.0 0.00 0.00 0.00 67 1014.1
20260507005017 79 250 0.0 4.0 0.00 0.00 0.00 68 1014.1
20260507004531 79 0 1.0 4.0 0.00 0.00 0.00 69 1014.3
20260507004014 79 0 0.0 1.0 0.00 0.00 0.00 71 1014.2